"Pseudo-MPEC" for P10LfTx

Created 2019 Jan 23 11:18:19 UT using Find_Orb

Click here for an explanation of pseudo-MPECs

 
 Astrometry: 
     P10LfTx  C2019 01 09%\GAstrometrysJS3-+U0o\^J8redacted;G6hW$k)9OrqGwSnJWF51
     P10LfTx  C2019 01 09!8d,clickV@qN5-g:E4*4E/%NirhereXaiY8BMbS)518`_MnLA9:F51
     P10LfTx  C2019 01 09L'`5`forh$X?GYWCa?wjtoY+-@D4explanationhqV'e\/KqI:O(F51
     P10LfTx ^C2019 01 11.65013610 21 40.790+32 18 49.98   ~1BNI 21.83GVNEOCP568
     P10LfTx ^C2019 01 11.65115910 21 40.362+32 18 45.99   ~1BNI 21.86GVNEOCP568

Station data:
(568) Mauna Kea  (N19.826116 W155.472200)  US/Hawaii.
(F51) Pan-STARRS 1, Haleakala  (N20.707235 W156.255910)  US/Hawaii.
   Observers N. Primak, A. Schultz, S. Watters, J. Thiel, T. Goggia. Measurer
   PS1 Science Consortium. 1.8-m Ritchey-Chrétien + CCD.

Orbital elements:  P10LfTx
   Perihelion 2018 Nov 23.640104 +/- 3.31 TT = 15:21:45 (JD 2458446.140104)
Epoch 2019 Jan 11.0 TT = JDT 2458494.5   Earth MOID: 0.1065   AutoNEOCP
M  11.04907739 +/- 11               (J2000 ecliptic)
n   0.22847603 +/- 0.201            Peri.   99.04172 +/- 0.54
a   2.64997804 +/- 1.55             Node   313.37993 +/- 1.6
e   0.6665551 +/- 0.206             Incl.   10.63128 +/- 1.8
P   4.31                   H 24.1   G  0.15   U 11.7  
q 0.88362160 +/- 0.0218    Q 4.41633449 +/- 2.39
From 5 observations 2019 Jan. 9-11; mean residual 0".15
Residuals in arcseconds: 
190109 F51  .02-  .19+    190109 F51  .03-  .20+    190111 568  .01-  .01+    
190109 F51  .05+  .40-    190111 568  .01+  .01-    

Ephemerides (geocentric):
Date (UTC) HH   RA              Dec         delta   r     elong  mag " sig PA
---- -- -- --  -------------   -----------  ------ ------ -----  --- ---- ---
2019 01 23 11  09 25 52.206   +22 21 04.28  .25773 1.2345 164.5 22.3 1511  51
2019 01 23 12  09 25 43.970   +22 19 29.30  .25804 1.2349 164.6 22.3 1518  51
2019 01 23 13  09 25 35.752   +22 17 54.51  .25835 1.2353 164.7 22.3 1524  51
2019 01 23 14  09 25 27.554   +22 16 19.91  .25866 1.2356 164.7 22.3 1531  51
2019 01 23 15  09 25 19.374   +22 14 45.51  .25897 1.2360 164.8 22.3 1537  51
2019 01 23 16  09 25 11.213   +22 13 11.30  .25928 1.2364 164.9 22.3 1544  51
2019 01 23 17  09 25 03.071   +22 11 37.29  .25959 1.2368 165.0 22.3 1550  51
2019 01 23 18  09 24 54.947   +22 10 03.47  .25990 1.2372 165.0 22.3 1557  51
2019 01 23 19  09 24 46.842   +22 08 29.84  .26022 1.2375 165.1 22.3 1563  51
2019 01 23 20  09 24 38.756   +22 06 56.41  .26053 1.2379 165.2 22.3 1570  51
2019 01 23 21  09 24 30.688   +22 05 23.17  .26084 1.2383 165.2 22.3 1576  51
2019 01 23 22  09 24 22.638   +22 03 50.12  .26116 1.2387 165.3 22.3 1583  51
2019 01 23 23  09 24 14.607   +22 02 17.26  .26147 1.2390 165.4 22.3 1590  51
2019 01 24 00  09 24 06.594   +22 00 44.60  .26178 1.2394 165.5 22.3 1596  51
2019 01 24 01  09 23 58.599   +21 59 12.12  .26210 1.2398 165.5 22.3 1603  51
2019 01 24 02  09 23 50.623   +21 57 39.84  .26241 1.2402 165.6 22.3 1609  51
2019 01 24 03  09 23 42.665   +21 56 07.75  .26273 1.2405 165.7 22.3 1616  51
2019 01 24 04  09 23 34.725   +21 54 35.85  .26304 1.2409 165.8 22.3 1622  51
2019 01 24 05  09 23 26.803   +21 53 04.14  .26336 1.2413 165.8 22.3 1629  51
2019 01 24 06  09 23 18.899   +21 51 32.62  .26367 1.2417 165.9 22.3 1635  51
2019 01 24 07  09 23 11.013   +21 50 01.28  .26399 1.2421 166.0 22.3 1641  51
2019 01 24 08  09 23 03.146   +21 48 30.14  .26431 1.2424 166.0 22.3 1648  51
2019 01 24 09  09 22 55.296   +21 46 59.19  .26462 1.2428 166.1 22.3 1654  51
2019 01 24 10  09 22 47.464   +21 45 28.42  .26494 1.2432 166.2 22.3 1661  51
2019 01 24 11  09 22 39.650   +21 43 57.84  .26526 1.2436 166.3 22.3 1667  51
2019 01 24 12  09 22 31.854   +21 42 27.45  .26557 1.2440 166.3 22.3 1674  51
2019 01 24 13  09 22 24.075   +21 40 57.25  .26589 1.2443 166.4 22.3 1680  51
2019 01 24 14  09 22 16.314   +21 39 27.23  .26621 1.2447 166.5 22.3 1687  51
2019 01 24 15  09 22 08.571   +21 37 57.40  .26653 1.2451 166.5 22.3 1693  51
2019 01 24 16  09 22 00.846   +21 36 27.75  .26685 1.2455 166.6 22.3 1700  51
2019 01 24 17  09 21 53.138   +21 34 58.30  .26717 1.2458 166.7 22.3 1706  51
2019 01 24 18  09 21 45.448   +21 33 29.02  .26749 1.2462 166.7 22.3 1712  51
2019 01 24 19  09 21 37.775   +21 31 59.94  .26781 1.2466 166.8 22.3 1719  51
2019 01 24 20  09 21 30.119   +21 30 31.03  .26813 1.2470 166.9 22.3 1725  51
2019 01 24 21  09 21 22.481   +21 29 02.32  .26845 1.2474 167.0 22.3 1732  51
2019 01 24 22  09 21 14.861   +21 27 33.78  .26877 1.2477 167.0 22.3 1738  51
2019 01 24 23  09 21 07.258   +21 26 05.43  .26909 1.2481 167.1 22.3 1744  51
2019 01 25 00  09 20 59.672   +21 24 37.27  .26941 1.2485 167.2 22.3 1751  51
2019 01 25 01  09 20 52.103   +21 23 09.28  .26973 1.2489 167.2 22.3 1757  51
2019 01 25 02  09 20 44.552   +21 21 41.48  .27005 1.2493 167.3 22.3 1764  51
2019 01 25 03  09 20 37.017   +21 20 13.86  .27038 1.2496 167.4 22.3 1770  51
2019 01 25 04  09 20 29.500   +21 18 46.43  .27070 1.2500 167.5 22.3 1776  51
2019 01 25 05  09 20 22.000   +21 17 19.18  .27102 1.2504 167.5 22.3 1783  51
2019 01 25 06  09 20 14.517   +21 15 52.10  .27135 1.2508 167.6 22.3 1789  51
2019 01 25 07  09 20 07.051   +21 14 25.21  .27167 1.2512 167.7 22.3 1795  51
2019 01 25 08  09 19 59.602   +21 12 58.50  .27199 1.2515 167.7 22.3 1802  51
2019 01 25 09  09 19 52.170   +21 11 31.97  .27232 1.2519 167.8 22.3 1808  51
2019 01 25 10  09 19 44.754   +21 10 05.62  .27264 1.2523 167.9 22.3 1814  51